Weather History for KORG - February, 2014

Change the Weather History Date:

Thursday, February 27, 2014

  Actual Average Record
Temperature  
Mean Temperature 43 °F -  
Max Temperature 53 °F 66 °F 82 °F (1986)
Min Temperature 33 °F 42 °F 30 °F (1965)
Degree Days  
Heating Degree Days 22    
Moisture  
Dew Point 33 °F    
Average Humidity 71    
Maximum Humidity 95    
Minimum Humidity 39    
Precipitation  
Precipitation 0.00 in - - ()
Sea Level Pressure  
Sea Level Pressure 30.12 in    
Wind  
Wind Speed 3 mph (NNW)    
Max Wind Speed 9 mph    
Max Gust Speed -    
Visibility 10 miles    
Events      
Averages and records for this station are not official NWS values.
T = Trace of Precipitation, MM = Missing Value Source: NWS Daily Summary

Daily Weather History Graph

Daily Weather History Graph

Search for Another Location

Airport or City:

Trip Planner

Search our weather history database for the weather conditions in past years. The results will help you decide how hot, cold, wet, or windy it might be!

Date:

Astronomy

Feb. 27, 2014 Rise Set
Actual Time 6:43 AM CST 6:12 PM CST
Civil Twilight 6:19 AM CST 6:36 PM CST
Nautical Twilight 5:51 AM CST 7:04 PM CST
Astronomical Twilight 5:23 AM CST 7:32 PM CST
Moon 5:10 AM CST (2/27) 4:42 PM CST (2/27)
Length of Visible Light 12h 17m
Length of Day
11h 29m
Waning Crescent, 4% of the Moon is Illuminated
Feb 27
Waning Crescent
Mar 1
New
Mar 8
First Quarter
Mar 16
Full
Mar 23
Last Quarter

Hourly Weather History & Observations

Time (CST) Temp. Windchill Dew Point Humidity Pressure Visibility Wind Dir Wind Speed Gust Speed Precip Events Conditions
12:10 AM 39.6 °F - 35.6 °F 86% 30.16 in 10.0 mi Calm Calm - N/A   Clear
12:35 AM 39.2 °F - 35.4 °F 86% 30.16 in 10.0 mi Calm Calm - N/A   Clear
12:55 AM 39.2 °F - 35.6 °F 87% 30.15 in 10.0 mi Calm Calm - N/A   Clear
1:15 AM 38.3 °F - 35.8 °F 91% 30.15 in 10.0 mi Calm Calm - N/A   Clear
1:35 AM 38.3 °F - 35.6 °F 90% 30.16 in 10.0 mi Calm Calm - N/A   Clear
1:55 AM 37.9 °F 35.5 °F 35.6 °F 91% 30.15 in 10.0 mi NNW 3.5 mph - N/A   Clear
2:15 AM 37.6 °F 35.1 °F 35.4 °F 92% 30.15 in 10.0 mi NNW 3.5 mph - N/A   Clear
2:35 AM 37.4 °F 34.9 °F 35.1 °F 91% 30.14 in 10.0 mi NNW 3.5 mph - N/A   Clear
2:55 AM 36.9 °F - 34.9 °F 93% 30.13 in 10.0 mi Calm Calm - N/A   Clear
3:15 AM 36.5 °F 33.9 °F 34.5 °F 93% 30.13 in 10.0 mi NNW 3.5 mph - N/A   Clear
3:35 AM 36.5 °F - 33.8 °F 90% 30.13 in 10.0 mi Calm Calm - N/A   Clear
3:55 AM 36.0 °F 33.3 °F 33.1 °F 89% 30.13 in 10.0 mi NNW 3.5 mph - N/A   Clear
4:15 AM 35.6 °F 32.8 °F 33.1 °F 91% 30.13 in 10.0 mi NNW 3.5 mph - N/A   Clear
4:35 AM 35.2 °F 32.4 °F 32.9 °F 91% 30.13 in 10.0 mi NNW 3.5 mph - N/A   Clear
4:50 AM 34.9 °F - 32.9 °F 92% 30.14 in 10.0 mi Calm Calm - N/A   Clear
5:15 AM 34.5 °F 31.6 °F 32.7 °F 93% 30.14 in 10.0 mi NNW 3.5 mph - N/A   Clear
5:35 AM 34.0 °F 31.0 °F 32.5 °F 94% 30.15 in 10.0 mi NNW 3.5 mph - N/A   Clear
5:55 AM 34.2 °F 30.0 °F 32.0 °F 92% 30.15 in 10.0 mi North 4.6 mph - N/A   Clear
6:15 AM 33.8 °F - 31.6 °F 92% 30.16 in 10.0 mi Calm Calm - N/A   Clear
6:35 AM 33.4 °F 29.1 °F 31.3 °F 92% 30.16 in 10.0 mi North 4.6 mph - N/A   Clear
6:55 AM 33.4 °F 30.4 °F 30.9 °F 90% 30.17 in 10.0 mi North 3.5 mph - N/A   Clear
7:15 AM 33.8 °F 29.6 °F 31.1 °F 90% 30.18 in 10.0 mi North 4.6 mph - N/A   Clear
7:35 AM 34.7 °F 30.6 °F 31.6 °F 89% 30.19 in 10.0 mi North 4.6 mph - N/A   Clear
7:55 AM 35.8 °F 33.0 °F 31.8 °F 86% 30.20 in 10.0 mi North 3.5 mph - N/A   Clear
8:15 AM 37.8 °F 33.3 °F 32.0 °F 80% 30.21 in 10.0 mi NNE 5.8 mph - N/A   Clear
8:35 AM 38.8 °F 35.4 °F 30.0 °F 71% 30.21 in 10.0 mi North 4.6 mph - N/A   Clear
8:55 AM 40.1 °F - 30.0 °F 67% 30.22 in 10.0 mi Calm Calm - N/A   Clear
9:15 AM 41.5 °F 37.8 °F 30.2 °F 64% 30.22 in 10.0 mi NE 5.8 mph - N/A   Clear
9:35 AM 43.0 °F 40.3 °F 29.3 °F 59% 30.22 in 10.0 mi NE 4.6 mph - N/A   Clear
9:55 AM 44.1 °F 41.5 °F 28.8 °F 55% 30.21 in 10.0 mi NE 4.6 mph - N/A   Clear
10:15 AM 45.0 °F 40.6 °F 29.3 °F 54% 30.21 in 10.0 mi ENE 8.1 mph - N/A   Clear
10:35 AM 45.0 °F - 27.5 °F 50% 30.21 in 10.0 mi Calm Calm - N/A   Clear
10:55 AM 46.0 °F 43.9 °F 27.9 °F 49% 30.20 in 10.0 mi North 4.6 mph - N/A   Clear
11:15 AM 46.9 °F - 27.9 °F 48% 30.20 in 10.0 mi NNE 3.5 mph - N/A   Clear
11:35 AM 47.8 °F - 28.8 °F 48% 30.18 in 10.0 mi Calm Calm - N/A   Clear
11:55 AM 48.6 °F - 28.6 °F 46% 30.17 in 10.0 mi North 3.5 mph - N/A   Clear
12:15 PM 49.1 °F - 28.6 °F 45% 30.16 in 10.0 mi Calm Calm - N/A   Clear
12:35 PM 49.8 °F - 28.8 °F 44% 30.14 in 10.0 mi WNW 3.5 mph - N/A   Clear
12:55 PM 49.8 °F - 27.3 °F 42% 30.13 in 10.0 mi West 4.6 mph - N/A   Clear
1:15 PM 50.9 °F - 26.8 °F 39% 30.11 in 10.0 mi NNE 3.5 mph - N/A   Clear
1:35 PM 52.0 °F - 28.4 °F 40% 30.10 in 10.0 mi North 4.6 mph - N/A   Clear
1:55 PM 52.7 °F - 29.7 °F 41% 30.10 in 10.0 mi Calm Calm - N/A   Clear
2:15 PM 53.2 °F - 31.8 °F 44% 30.09 in 10.0 mi SSW 8.1 mph - N/A   Clear
2:35 PM 53.4 °F - 31.6 °F 44% 30.08 in 10.0 mi Calm Calm - N/A   Clear
2:55 PM 53.4 °F - 31.8 °F 44% 30.07 in 10.0 mi WSW 5.8 mph - N/A   Clear
3:15 PM 53.2 °F - 31.5 °F 43% 30.06 in 10.0 mi South 9.2 mph - N/A   Clear
3:35 PM 53.4 °F - 31.8 °F 44% 30.06 in 10.0 mi SSW 6.9 mph - N/A   Clear
3:55 PM 53.2 °F - 32.0 °F 44% 30.06 in 10.0 mi South 5.8 mph - N/A   Clear
4:15 PM 52.9 °F - 31.5 °F 44% 30.05 in 10.0 mi SSW 5.8 mph - N/A   Clear
4:35 PM 53.1 °F - 32.5 °F 46% 30.04 in 10.0 mi SSE 6.9 mph - N/A   Clear
4:55 PM 52.3 °F - 32.2 °F 46% 30.04 in 10.0 mi South 5.8 mph - N/A   Clear
5:15 PM 52.0 °F - 33.3 °F 49% 30.04 in 10.0 mi SSE 8.1 mph - N/A   Clear
5:35 PM 50.2 °F - 35.6 °F 57% 30.04 in 10.0 mi South 8.1 mph - N/A   Clear
5:55 PM 48.7 °F - 35.2 °F 60% 30.04 in 10.0 mi South 8.1 mph - N/A   Clear
6:15 PM 47.7 °F - 35.6 °F 63% 30.04 in 10.0 mi South 8.1 mph - N/A   Clear
6:35 PM 46.6 °F - 35.6 °F 66% 30.04 in 10.0 mi South 8.1 mph - N/A   Clear
6:55 PM 46.0 °F 42.5 °F 35.6 °F 67% 30.04 in 10.0 mi South 6.9 mph - N/A   Clear
7:15 PM 45.5 °F 42.5 °F 35.4 °F 68% 30.04 in 10.0 mi South 5.8 mph - N/A   Clear
7:35 PM 43.7 °F 42.1 °F 35.6 °F 73% 30.04 in 10.0 mi South 3.5 mph - N/A   Clear
7:55 PM 42.8 °F 41.1 °F 36.1 °F 77% 30.05 in 10.0 mi South 3.5 mph - N/A   Clear
8:15 PM 43.2 °F 41.5 °F 36.1 °F 76% 30.06 in 10.0 mi SW 3.5 mph - N/A   Clear
8:35 PM 43.5 °F - 36.5 °F 76% 30.07 in 10.0 mi Calm Calm - N/A   Clear
8:55 PM 43.0 °F - 36.5 °F 78% 30.07 in 10.0 mi Calm Calm - N/A   Clear
9:15 PM 42.3 °F - 36.5 °F 80% 30.07 in 10.0 mi Calm Calm - N/A   Clear
9:35 PM 41.9 °F - 36.3 °F 81% 30.06 in 10.0 mi Calm Calm - N/A   Clear
9:55 PM 40.3 °F - 37.4 °F 89% 30.05 in 10.0 mi Calm Calm - N/A   Clear
10:15 PM 39.6 °F - 37.6 °F 93% 30.05 in 10.0 mi Calm Calm - N/A   Clear
10:35 PM 39.2 °F - 37.4 °F 93% 30.05 in 10.0 mi Calm Calm - N/A   Clear
10:55 PM 38.5 °F - 37.0 °F 95% 30.04 in 10.0 mi Calm Calm - N/A   Clear
11:15 PM 38.3 °F - 37.0 °F 95% 30.03 in 10.0 mi Calm Calm - N/A   Clear
11:35 PM 40.6 °F 36.7 °F 38.5 °F 92% 30.01 in 10.0 mi ESE 5.8 mph - N/A   Clear
11:55 PM 44.6 °F 41.4 °F 37.4 °F 76% 30.01 in 10.0 mi SE 5.8 mph - N/A   Clear